Simultaneous Nadir Overpasses (SNOs) Predictions

Prediction of SNOs between METOP-A and NOAA-19 Satellite Orbit:

Table of predicted SNOs for the next 14.0 days since TLE Epoch: 1/9/2021
Index Date (METOP-A) Time (METOP-A) Lat,Lon (METOP-A) SZA (METOP-A ) Date (NOAA-19) Time (NOAA-19) Lat,Lon (NOAA-19) SZA (NOAA-19 ) Distance(km) Time Diff (sec)
1 01/09/2021 16:20:04 80.82, -52.52 102.92 01/09/2021 16:18:53 80.81, -52.35 102.91 3.12 71
2 01/09/2021 17:10:45 -80.82, 114.89 77.08 01/09/2021 17:09:49 -80.81, 114.89 77.10 0.99 56
3 01/09/2021 18:01:26 80.81, -78.00 102.89 01/09/2021 18:00:54 80.82, -78.05 102.90 1.20 32
4 01/09/2021 18:52:07 -80.81, 89.41 77.11 01/09/2021 18:51:49 -80.81, 89.56 77.11 2.68 18
5 01/09/2021 19:42:48 80.80,-103.48 102.87 01/09/2021 19:42:54 80.81,-103.38 102.89 2.49 6
6 01/09/2021 20:33:29 -80.80, 63.92 77.13 01/09/2021 20:33:50 -80.82, 63.85 77.12 1.74 21
7 01/09/2021 21:24:09 80.81,-128.62 102.88 01/09/2021 21:24:54 80.81,-128.71 102.88 1.60 45
8 01/09/2021 22:14:50 -80.82, 38.79 77.12 01/09/2021 22:15:49 -80.81, 38.88 77.13 2.14 59
9 01/20/2021 18:24:10 -80.82, 96.21 79.17 01/20/2021 18:22:55 -80.83, 96.28 79.17 1.42 75
10 01/20/2021 19:14:50 80.82, -96.42 100.83 01/20/2021 19:14:00 80.82, -96.31 100.83 1.96 50
11 01/20/2021 20:05:31 -80.83, 71.07 79.17 01/20/2021 20:04:55 -80.82, 70.94 79.18 2.48 36
12 01/20/2021 20:56:11 80.83,-121.56 100.83 01/20/2021 20:56:00 80.82,-121.65 100.82 2.17 11
13 01/20/2021 21:46:53 -80.82, 45.58 79.20 01/20/2021 21:46:55 -80.82, 45.60 79.20 0.37 2
14 01/20/2021 22:37:33 80.83,-147.05 100.81 01/20/2021 22:38:00 80.82,-146.99 100.80 1.32 27
15 01/20/2021 23:28:15 -80.81, 20.10 79.22 01/20/2021 23:28:55 -80.82, 20.27 79.21 2.99 40



Historial Predications of SNOs between METOP-A and NOAA-19
